TimeCST,TemperatureF,Dew PointF,Humidity,Sea Level PressureIn,VisibilityMPH,Wind Direction,Wind SpeedMPH,Gust SpeedMPH,PrecipitationIn,Events,Conditions,WindDirDegrees,DateUTC
6:00 AM,74,71,87,29.85,12,ENE,3.5,,,,Overcast,70,2013-07-17 12:00:00
6:00 AM,75.2,71.6,89,29.83,6.2,ENE,3.5,-,N/A,,Overcast,70,2013-07-17 12:00:00
7:00 AM,78.8,73.4,83,29.83,6.2,SW,2.3,-,N/A,,Overcast,220,2013-07-17 13:00:00
8:00 AM,80.6,73.4,79,29.84,6.2,South,4.6,-,N/A,,Overcast,190,2013-07-17 14:00:00
9:00 AM,86,74,61,29.86,12,WSW,3.5,,,,Overcast,240,2013-07-17 15:00:00
9:00 AM,86.0,75.2,70,29.85,6.2,WSW,3.5,-,N/A,,Mostly Cloudy,240,2013-07-17 15:00:00
10:00 AM,87.8,73.4,62,29.84,6.2,West,10.4,-,N/A,,Mostly Cloudy,280,2013-07-17 16:00:00
11:00 AM,89.6,73.4,59,29.83,6.2,ENE,3.5,-,N/A,,Scattered Clouds,70,2013-07-17 17:00:00
12:00 PM,87,71,50,29.83,12,East,13.8,,,,Scattered Clouds,80,2013-07-17 18:00:00
12:00 PM,87.8,71.6,58,29.82,6.2,East,13.8,-,N/A,,Mostly Cloudy,80,2013-07-17 18:00:00
1:00 PM,91.4,71.6,52,29.81,6.2,East,10.4,-,N/A,,Mostly Cloudy,100,2013-07-17 19:00:00
2:00 PM,91.4,71.6,52,29.79,6.2,ENE,13.8,-,N/A,,Scattered Clouds,60,2013-07-17 20:00:00
3:00 PM,91,71,42,29.79,12,ENE,9.2,,,,Scattered Clouds,70,2013-07-17 21:00:00
3:00 PM,91.4,-9999,N/A,29.77,6.2,ENE,9.2,-,N/A,,Scattered Clouds,70,2013-07-17 21:00:00
4:00 PM,91.4,71.6,52,29.76,6.2,ENE,6.9,-,N/A,,Scattered Clouds,60,2013-07-17 22:00:00
5:00 PM,87.8,73.4,62,29.79,6.2,North,6.9,-,N/A,,Mostly Cloudy,350,2013-07-17 23:00:00
5:41 PM,82.4,71.6,70,29.83,6.2,ENE,15.0,26.5,N/A,Rain,Rain,70,2013-07-17 23:41:00
6:00 PM,77,72,81,29.86,12,East,20.7,,,Rain,Light Rain,80,2013-07-18 00:00:00
6:00 PM,77.0,71.6,83,29.85,6.2,East,20.7,-,N/A,Rain,Light Rain,80,2013-07-18 00:00:00
7:00 PM,75.2,71.6,89,29.88,5.6,SSE,5.8,-,N/A,Rain,Rain,150,2013-07-18 01:00:00
8:00 PM,75.2,71.6,89,29.87,6.2,South,8.1,-,N/A,Rain,Light Rain,170,2013-07-18 02:00:00